�N����,����,�~����,�C��,���x,�C��,����,���ϕ���,�ő�u�ԕ���,�ő厞����,���˗�,�I�_���x,�n�����x,�ő啗���N��,DTYPE
"23/03/19","00:10",0.0,6.3,87.4,1010.7,330.7,2.3,3.6,335.9,0.00,4.4,10.8,"00:06:08",1
"23/03/19","00:20",0.0,6.0,87.8,1010.7,325.7,2.1,3.2,335.9,0.00,4.2,10.7,"00:12:24",1
"23/03/19","00:30",0.0,6.0,88.4,1010.7,292.6,1.8,2.8,272.0,0.00,4.3,10.7,"00:29:56",1
"23/03/19","00:40",0.0,6.2,88.6,1010.4,297.8,2.3,3.3,306.3,0.00,4.5,10.7,"00:30:24",1
"23/03/19","00:50",0.0,6.3,88.8,1010.9,303.7,2.5,4.0,318.8,0.00,4.6,10.7,"00:41:20",1
"23/03/19","01:00",0.0,6.2,89.1,1011.2,310.2,1.8,2.4,328.4,0.00,4.6,10.7,"00:57:28",1
"23/03/19","01:10",0.0,5.9,89.3,1011.2,320.4,2.1,2.6,345.9,0.00,4.3,10.5,"01:00:24",1
"23/03/19","01:20",0.0,5.8,89.8,1011.2,328.3,2.5,3.6,331.6,0.00,4.3,10.6,"01:18:36",1
"23/03/19","01:30",0.0,5.9,90.1,1011.2,327.7,2.8,3.9,333.9,0.00,4.4,10.5,"01:25:52",1
"23/03/19","01:40",0.0,5.9,90.4,1011.2,324.0,2.2,3.2,332.2,0.00,4.5,10.5,"01:38:08",1
"23/03/19","01:50",0.0,5.8,90.6,1011.2,321.5,2.7,3.5,314.4,0.00,4.4,10.6,"01:48:28",1
"23/03/19","02:00",0.0,5.7,90.8,1010.9,316.6,2.3,3.1,315.7,0.00,4.4,10.4,"01:50:52",1
"23/03/19","02:10",0.0,5.5,91.1,1010.9,308.7,2.2,3.2,315.3,0.00,4.2,10.4,"02:01:14",1
"23/03/19","02:20",0.0,5.3,91.4,1010.9,319.3,1.6,2.2,332.6,0.00,4.1,10.2,"02:13:54",1
"23/03/19","02:30",0.0,5.3,91.7,1011.2,328.5,2.0,2.8,336.1,0.00,4.1,10.5,"02:29:40",1
"23/03/19","02:40",0.0,5.3,92.0,1010.9,328.4,2.3,2.9,319.1,0.00,4.1,10.4,"02:33:26",1
"23/03/19","02:50",0.0,5.1,92.1,1010.9,292.4,1.5,2.4,309.6,0.00,4.0,10.4,"02:40:24",1
"23/03/19","03:00",0.0,5.1,92.5,1011.2,316.8,0.2,0.8,259.3,0.00,4.0,10.2,"02:50:24",1
"23/03/19","03:10",0.0,5.1,92.8,1011.2,302.1,1.1,2.6,332.1,0.00,4.1,10.2,"03:08:52",1
"23/03/19","03:20",0.0,4.9,92.8,1010.9,311.8,1.7,2.6,335.7,0.00,3.9,10.3,"03:10:56",1
"23/03/19","03:30",0.0,4.8,93.0,1011.2,290.9,1.3,2.0,317.6,0.00,3.8,10.3,"03:20:32",1
"23/03/19","03:40",0.0,4.8,93.3,1011.4,285.4,1.8,2.6,308.5,0.00,3.9,10.3,"03:38:58",1
"23/03/19","03:50",0.0,4.8,93.5,1011.4,283.0,1.8,2.5,313.3,0.00,3.9,10.3,"03:43:30",1
"23/03/19","04:00",0.0,4.7,93.6,1011.6,289.6,1.3,2.0,314.8,0.00,3.8,10.2,"03:52:52",1
"23/03/19","04:10",0.0,4.4,93.8,1011.4,295.4,1.2,1.8,317.5,0.00,3.5,10.3,"04:03:24",1
"23/03/19","04:20",0.0,4.2,94.2,1011.2,317.7,1.6,2.4,332.4,0.00,3.4,10.0,"04:17:04",1
"23/03/19","04:30",0.0,4.3,94.4,1011.6,311.2,1.7,1.9,311.4,0.00,3.5,10.2,"04:28:14",1
"23/03/19","04:40",0.0,4.3,94.6,1011.4,317.5,1.3,2.0,325.8,0.00,3.6,10.0,"04:39:08",1
"23/03/19","04:50",0.0,3.9,94.7,1011.4,315.0,1.3,2.4,309.2,0.00,3.2,9.9,"04:40:08",1
"23/03/19","05:00",0.0,3.5,94.9,1011.4,292.3,1.2,2.1,307.5,0.00,2.8,10.3,"04:55:58",1
"23/03/19","05:10",0.0,3.6,95.3,1011.6,284.5,1.7,2.5,319.9,0.00,3.0,10.0,"05:09:46",1
"23/03/19","05:20",0.0,3.6,95.3,1011.4,306.8,1.6,2.6,302.1,0.00,3.0,9.8,"05:10:26",1
"23/03/19","05:30",0.0,3.4,95.4,1011.6,299.8,1.3,1.8,313.3,0.00,2.8,9.8,"05:22:46",1
"23/03/19","05:40",0.0,3.5,95.8,1011.9,282.5,1.7,2.4,284.3,0.00,2.9,9.8,"05:34:38",1
"23/03/19","05:50",0.0,3.4,95.8,1012.1,322.4,1.6,2.6,319.7,0.00,2.8,9.8,"05:44:48",1
"23/03/19","06:00",0.0,3.2,96.2,1011.9,325.4,1.7,2.9,311.4,0.00,2.7,9.9,"05:50:54",1
"23/03/19","06:10",0.0,3.1,96.3,1012.1,311.5,1.2,2.2,316.6,0.00,2.6,10.0,"06:01:24",1
"23/03/19","06:20",0.0,3.0,96.4,1011.9,304.5,1.5,2.1,316.0,0.00,2.5,9.7,"06:15:58",1
"23/03/19","06:30",0.0,2.8,96.6,1012.3,287.0,1.1,2.0,279.7,0.00,2.4,9.6,"06:28:12",1
"23/03/19","06:40",0.0,2.8,96.8,1012.3,289.9,1.7,2.2,264.9,0.00,2.4,9.7,"06:34:46",1
"23/03/19","06:50",0.0,2.9,96.8,1012.6,295.2,1.8,2.5,310.5,0.00,2.5,9.3,"06:44:32",1
"23/03/19","07:00",0.0,3.0,97.0,1013.0,309.1,1.6,2.5,307.0,0.00,2.6,9.6,"06:52:20",1
"23/03/19","07:10",0.0,2.9,97.1,1012.8,300.8,1.2,3.1,317.3,0.00,2.5,9.5,"07:09:50",1
"23/03/19","07:20",0.0,2.8,97.3,1013.0,278.6,1.2,2.6,322.5,0.00,2.5,9.6,"07:10:08",1
"23/03/19","07:30",0.0,3.4,97.5,1013.3,310.5,0.8,1.9,313.2,0.01,3.1,9.7,"07:22:08",1
"23/03/19","07:40",0.0,3.8,97.4,1013.5,335.7,1.7,2.4,354.3,0.02,3.5,9.4,"07:31:28",1
"23/03/19","07:50",0.0,4.3,97.7,1013.8,307.9,1.2,2.1,315.0,0.03,4.0,9.3,"07:40:08",1
"23/03/19","08:00",0.0,5.3,97.5,1014.0,266.1,0.8,1.2,268.6,0.04,5.0,9.3,"07:59:44",1
"23/03/19","08:10",0.0,6.0,97.4,1014.2,322.0,1.2,1.9,340.3,0.06,5.7,9.5,"08:08:40",1
"23/03/19","08:20",0.0,6.4,97.2,1014.5,324.7,1.6,2.4,314.3,0.08,6.0,9.5,"08:19:12",1
"23/03/19","08:30",0.0,6.8,97.0,1014.9,248.7,0.6,1.8,325.1,0.10,6.4,9.3,"08:20:16",1
"23/03/19","08:40",0.0,6.9,96.7,1015.4,178.9,0.8,2.1,133.6,0.14,6.5,9.5,"08:34:08",1
"23/03/19","08:50",0.0,7.4,96.3,1015.4,185.1,0.6,1.6,206.5,0.18,6.9,9.4,"08:48:18",1
"23/03/19","09:00",0.0,7.7,95.4,1015.4,187.7,0.7,1.2,232.6,0.21,7.1,9.4,"08:53:12",1
"23/03/19","09:10",0.0,8.3,94.8,1015.9,189.7,0.5,1.1,157.9,0.24,7.6,9.3,"09:02:32",1
"23/03/19","09:20",0.0,9.0,93.6,1015.9,296.8,0.5,1.0,288.3,0.27,8.1,9.5,"09:17:16",1
"23/03/19","09:30",0.0,9.4,91.3,1016.4,255.0,0.8,2.8,240.4,0.30,8.1,9.5,"09:23:20",1
"23/03/19","09:40",0.0,10.3,88.0,1016.4,165.0,0.6,1.8,191.7,0.33,8.4,9.3,"09:34:40",1
"23/03/19","09:50",0.0,11.0,83.5,1016.4,199.2,1.0,2.0,192.5,0.36,8.4,9.6,"09:41:20",1
"23/03/19","10:00",0.0,11.6,78.0,1016.4,238.7,0.7,1.4,250.1,0.36,7.9,9.5,"09:54:40",1
"23/03/19","10:10",0.0,11.5,70.0,1016.4,330.8,3.2,6.5,327.0,0.40,6.3,9.6,"10:04:08",1
"23/03/19","10:20",0.0,11.8,66.5,1016.4,340.4,2.6,4.5,345.0,0.42,5.8,9.7,"10:13:28",1
"23/03/19","10:30",0.0,12.6,64.9,1016.1,339.1,1.8,4.1,346.8,0.44,6.2,9.6,"10:23:30",1
"23/03/19","10:40",0.0,12.7,60.3,1016.1,354.3,1.8,3.7,1.9,0.45,5.3,9.8,"10:39:04",1
"23/03/19","10:50",0.0,12.9,57.1,1016.1,345.4,2.2,6.2,341.6,0.47,4.7,9.8,"10:45:20",1
"23/03/19","11:00",0.0,13.1,57.0,1015.9,336.5,2.6,4.7,334.3,0.50,4.8,9.9,"10:58:48",1
"23/03/19","11:10",0.0,13.2,53.0,1015.4,2.8,2.0,4.2,351.8,0.52,3.9,10.0,"11:07:44",1
"23/03/19","11:20",0.0,13.8,52.4,1015.2,1.5,1.8,4.7,312.8,0.53,4.3,10.0,"11:16:40",1
"23/03/19","11:30",0.0,14.1,50.3,1015.2,16.1,1.6,3.6,345.8,0.54,4.0,10.1,"11:24:32",1
"23/03/19","11:40",0.0,14.5,51.5,1015.2,101.5,1.3,2.8,121.8,0.55,4.7,10.1,"11:38:56",1
"23/03/19","11:50",0.0,14.5,48.4,1014.7,52.0,1.5,3.6,58.1,0.57,3.8,10.2,"11:44:56",1
"23/03/19","12:00",0.0,14.8,46.1,1014.9,17.9,1.5,4.2,349.2,0.57,3.4,10.4,"11:56:26",1
"23/03/19","12:10",0.0,15.2,49.2,1014.7,349.4,1.8,4.5,330.8,0.58,4.7,10.6,"12:09:06",1
"23/03/19","12:20",0.0,14.9,47.9,1014.9,341.1,2.5,4.9,348.6,0.58,4.0,10.6,"12:13:52",1
"23/03/19","12:30",0.0,15.2,45.2,1014.5,337.2,2.0,4.4,337.9,0.59,3.5,10.4,"12:28:56",1
"23/03/19","12:40",0.0,14.9,44.8,1014.5,335.9,3.7,7.8,346.9,0.59,3.1,10.8,"12:32:48",1
"23/03/19","12:50",0.0,15.1,41.6,1014.0,342.0,3.1,6.3,344.5,0.59,2.2,11.1,"12:47:04",1
"23/03/19","13:00",0.0,15.5,44.5,1014.0,333.6,3.4,5.2,345.4,0.59,3.5,10.7,"12:59:04",1
"23/03/19","13:10",0.2,16.0,41.2,1014.0,329.1,2.0,4.7,339.0,0.59,2.9,11.1,"13:08:00",1
"23/03/19","13:20",0.0,16.1,41.4,1013.5,342.8,2.1,4.8,350.3,0.59,3.0,11.1,"13:17:28",1
"23/03/19","13:30",0.0,16.1,37.9,1013.5,5.4,2.3,5.6,329.8,0.58,1.8,11.2,"13:21:28",1
"23/03/19","13:40",0.0,16.5,37.2,1013.5,353.2,2.1,5.2,352.2,0.58,1.9,11.3,"13:34:16",1
"23/03/19","13:50",0.0,16.4,40.9,1013.3,338.0,3.0,5.7,323.1,0.57,3.1,11.3,"13:44:40",1
"23/03/19","14:00",0.0,17.0,36.4,1013.0,20.0,1.3,3.9,350.7,0.56,2.0,11.3,"13:59:12",1
"23/03/19","14:10",0.0,16.8,35.3,1012.6,341.7,2.0,4.3,356.9,0.55,1.4,11.4,"14:08:00",1
"23/03/19","14:20",0.0,16.6,37.4,1012.6,339.1,3.1,7.0,324.0,0.54,2.1,11.6,"14:15:52",1
"23/03/19","14:30",0.0,17.2,35.3,1012.6,353.9,1.7,3.6,9.6,0.52,1.8,11.9,"14:22:08",1
"23/03/19","14:40",0.0,16.8,35.0,1012.6,327.6,2.8,4.9,319.7,0.51,1.3,11.7,"14:38:56",1
"23/03/19","14:50",0.0,17.1,31.7,1012.1,359.2,2.1,4.2,332.7,0.49,0.2,11.9,"14:41:04",1
"23/03/19","15:00",0.0,17.6,33.5,1011.9,344.5,1.8,4.5,345.1,0.47,1.4,12.1,"14:53:44",1
"23/03/19","15:10",0.0,17.7,35.4,1012.1,352.5,1.7,3.7,21.2,0.39,2.3,12.1,"15:04:08",1
"23/03/19","15:20",0.0,17.8,36.6,1011.6,328.8,1.7,4.9,344.7,0.43,2.8,12.2,"15:19:28",1
"23/03/19","15:30",0.0,17.5,40.2,1012.1,314.5,2.6,5.6,327.8,0.41,3.9,12.3,"15:20:16",1
"23/03/19","15:40",0.0,17.5,35.6,1011.9,341.4,1.8,4.3,341.5,0.38,2.2,12.5,"15:34:00",1
"23/03/19","15:50",0.0,17.3,38.7,1011.6,316.1,3.1,6.4,317.1,0.34,3.2,12.5,"15:48:56",1
"23/03/19","16:00",0.0,17.4,38.8,1012.1,324.4,2.3,4.5,336.0,0.33,3.3,12.6,"15:55:28",1
"23/03/19","16:10",0.0,17.6,36.3,1011.9,299.2,2.0,3.3,340.9,0.31,2.5,12.7,"16:00:02",1
"23/03/19","16:20",0.0,17.8,35.0,1011.9,292.4,1.7,3.9,343.4,0.29,2.2,12.6,"16:10:08",1
"23/03/19","16:30",0.0,17.9,35.6,1011.9,343.8,1.5,3.7,340.6,0.25,2.5,12.7,"16:29:52",1
"23/03/19","16:40",0.0,17.7,34.4,1012.1,346.0,2.1,5.9,342.1,0.23,1.9,12.7,"16:35:04",1
"23/03/19","16:50",0.0,17.2,35.8,1012.1,338.3,2.5,7.0,342.5,0.20,2.0,12.8,"16:48:24",1
"23/03/19","17:00",0.0,16.9,35.0,1012.3,356.9,2.6,5.9,340.4,0.17,1.4,13.0,"16:59:52",1
"23/03/19","17:10",0.0,16.4,36.3,1012.3,336.1,3.9,5.5,336.7,0.14,1.5,12.9,"17:02:56",1
"23/03/19","17:20",0.0,16.5,34.3,1012.3,349.7,2.7,5.2,351.8,0.12,0.8,13.0,"17:19:36",1
"23/03/19","17:30",0.0,16.2,34.5,1012.3,345.5,2.6,6.4,347.8,0.09,0.6,13.0,"17:27:20",1
"23/03/19","17:40",0.0,16.0,36.4,1012.6,343.9,2.7,5.8,344.4,0.07,1.1,12.9,"17:35:52",1
"23/03/19","17:50",0.0,15.3,36.3,1012.8,337.2,3.6,5.6,349.3,0.05,0.5,12.9,"17:40:32",1
"23/03/19","18:00",0.0,14.9,37.6,1012.6,338.7,3.4,4.8,347.8,0.03,0.6,12.8,"17:55:40",1
"23/03/19","18:10",0.0,14.6,39.6,1012.8,340.4,3.0,4.3,345.6,0.02,1.1,12.8,"18:07:54",1
"23/03/19","18:20",0.0,14.0,40.9,1012.8,342.5,3.1,5.1,346.3,0.00,1.0,12.7,"18:16:50",1
"23/03/19","18:30",0.0,13.3,44.6,1013.3,337.7,3.0,4.5,337.2,0.00,1.5,12.6,"18:21:22",1
"23/03/19","18:40",0.0,12.7,46.2,1013.5,331.1,3.7,5.8,332.7,0.00,1.5,12.7,"18:33:20",1
"23/03/19","18:50",0.0,12.0,49.4,1013.3,331.6,3.9,4.7,337.3,0.00,1.8,12.7,"18:45:20",1
"23/03/19","19:00",0.0,11.4,52.4,1013.3,331.9,3.6,4.7,329.5,0.00,2.0,12.7,"18:57:52",1
"23/03/19","19:10",0.0,10.9,54.9,1013.8,328.4,3.9,5.5,337.8,0.00,2.2,12.5,"19:06:10",1
"23/03/19","19:20",0.0,10.3,57.1,1013.3,333.8,3.1,4.4,336.6,0.00,2.2,12.7,"19:15:02",1
"23/03/19","19:30",0.0,10.0,57.9,1013.8,336.5,3.0,4.3,337.7,0.00,2.1,12.5,"19:24:04",1
"23/03/19","19:40",0.0,9.5,58.9,1013.8,338.3,2.0,3.2,333.8,0.00,1.9,12.7,"19:36:08",1
"23/03/19","19:50",0.0,9.1,60.9,1013.8,337.3,2.2,3.2,328.1,0.00,2.0,12.4,"19:47:38",1
"23/03/19","20:00",0.0,9.0,61.0,1013.8,303.3,2.3,3.9,303.9,0.00,1.9,12.2,"19:50:24",1
"23/03/19","20:10",0.0,8.7,60.9,1013.5,326.6,2.1,3.3,336.4,0.00,1.6,12.4,"20:08:48",1
"23/03/19","20:20",0.0,8.3,60.9,1013.8,316.3,2.0,3.2,325.2,0.00,1.2,12.2,"20:17:52",1
"23/03/19","20:30",0.0,8.0,62.4,1013.8,274.9,1.5,2.4,309.0,0.00,1.3,12.4,"20:28:16",1
"23/03/19","20:40",0.0,8.0,63.2,1013.8,287.4,2.5,3.4,294.9,0.00,1.5,12.1,"20:39:28",1
"23/03/19","20:50",0.0,7.9,63.5,1014.2,307.9,3.1,4.2,305.1,0.00,1.4,12.1,"20:46:08",1
"23/03/19","21:00",0.0,7.6,63.6,1013.8,298.5,3.5,5.4,322.9,0.00,1.2,12.0,"20:55:04",1
"23/03/19","21:10",0.0,7.4,63.2,1014.2,283.6,3.0,4.2,305.6,0.00,0.9,12.1,"21:05:36",1
"23/03/19","21:20",0.0,7.4,63.1,1014.7,267.7,3.0,4.2,263.3,0.00,0.9,11.8,"21:19:46",1
"23/03/19","21:30",0.0,7.3,61.3,1014.7,282.1,3.4,4.4,262.2,0.00,0.4,12.0,"21:20:50",1
"23/03/19","21:40",0.0,7.4,58.9,1014.9,315.3,4.4,6.7,324.4,0.00,-0.1,11.9,"21:37:28",1
"23/03/19","21:50",0.0,7.2,59.7,1014.7,327.8,5.0,6.8,314.0,0.00,-0.1,11.9,"21:44:16",1
"23/03/19","22:00",0.0,6.9,60.0,1014.9,331.4,4.6,5.8,337.4,0.00,-0.3,11.6,"21:52:32",1
"23/03/19","22:10",0.0,6.5,62.8,1015.2,337.1,4.0,5.2,344.7,0.00,0.0,11.9,"22:08:40",1
"23/03/19","22:20",0.0,6.3,63.0,1015.4,332.3,4.2,6.4,345.0,0.00,-0.2,11.7,"22:19:54",1
"23/03/19","22:30",0.0,6.2,63.5,1015.2,333.4,3.6,5.2,342.5,0.00,-0.2,11.6,"22:20:16",1
"23/03/19","22:40",0.0,6.2,63.1,1015.2,334.9,3.6,5.0,323.7,0.00,-0.3,11.7,"22:38:16",1
"23/03/19","22:50",0.0,6.2,61.8,1014.9,325.9,4.5,6.6,324.6,0.00,-0.5,11.4,"22:48:38",1
"23/03/19","23:00",0.0,6.3,60.0,1014.7,285.1,3.4,6.4,319.2,0.00,-0.8,11.2,"22:50:42",1
"23/03/19","23:10",0.0,5.9,61.7,1014.9,334.3,2.3,4.1,319.5,0.00,-0.8,11.4,"23:06:02",1
"23/03/19","23:20",0.0,5.5,64.9,1014.5,332.5,3.4,4.9,342.4,0.00,-0.5,11.4,"23:16:28",1
"23/03/19","23:30",0.0,5.3,65.5,1014.5,312.4,1.3,3.6,329.1,0.00,-0.6,11.2,"23:22:52",1
"23/03/19","23:40",0.0,4.9,67.1,1014.5,322.9,2.1,3.5,331.3,0.00,-0.6,11.1,"23:39:32",1
"23/03/19","23:50",0.0,5.0,67.5,1014.7,327.0,2.8,4.9,343.1,0.00,-0.5,11.1,"23:40:02",1
"23/03/19","24:00",0.0,4.9,68.0,1014.5,327.5,2.8,4.5,325.8,0.00,-0.5,11.3,"23:52:26",1
